QPF
0.00 0.00 0.00 0.00 0.00 0.00 0.00 0.00 0.00 0.00 0.00 0.00 0.00 0.00 0.00 0.00 0.00 0.00 0.00 0.00 0.00 0.00 0.00 0.00 0.00 0.00 0.00 0.00 0.00 0.00 0.00 0.00
0.00 0.00 0.00 0.00 0.00 0.00 0.00 0.00 0.00 0.00 0.00 0.00 0.00 0.00 0.00 0.00 0.00 0.00 0.00 0.00 0.00 0.00 0.00 0.00 0.00 0.00 0.00 0.00 0.00 0.00 0.00 0.00
0.00 0.00 0.00 0.00 0.00 0.00 0.00 0.00 0.00 0.00 0.00 0.00 0.00 0.00 0.00 0.00 0.00 0.00 0.00 0.00 0.01 0.03 0.01 0.00 0.00 0.00 0.00 0.00 0.00 0.01 0.00 0.01
0.00 0.00 0.00 0.00 0.00 0.00 0.00 0.00 0.00 0.00 0.00 0.00 0.00 0.01 0.02 0.00 0.00 0.00 0.03 0.02 0.04 0.03 0.03 0.01 0.00 0.00 0.00 0.00 0.01 0.01 0.01 0.01
0.00 0.00 0.00 0.00 0.00 0.00 0.00 0.00 0.00 0.00 0.00 0.00 0.01 0.02 0.03 0.02 0.01 0.05 0.10 0.06 0.06 0.01 0.02 0.01 0.03 0.02 0.01 0.00 0.00 0.01 0.01 0.00
0.00 0.00 0.00 0.00 0.00 0.00 0.00 0.00 0.00 0.00 0.00 0.00 0.06 0.07 0.05 0.11 0.20 0.28 0.25 0.15 0.09 0.04 0.01 0.02 0.02 0.02 0.01 0.01 0.01 0.01 0.01 0.01
0.00 0.00 0.00 0.00 0.00 0.00 0.00 0.00 0.00 0.00 0.02 0.02 0.06 0.06 0.05 0.05 0.09 0.06 0.10 0.10 0.10 0.05 0.04 0.03 0.02 0.02 0.03 0.02 0.02 0.01 0.01 0.01
0.00 0.00 0.00 0.00 0.00 0.00 0.00 0.00 0.00 0.00 0.01 0.03 0.03 0.04 0.04 0.05 0.05 0.04 0.08 0.10 0.07 0.02 0.07 0.05 0.06 0.06 0.03 0.04 0.04 0.02 0.01 0.01
0.00 0.00 0.00 0.00 0.00 0.01 0.01 0.01 0.01 0.01 0.02 0.01 0.01 0.02 0.02 0.01 0.01 0.00 0.01 0.01 0.02 0.01 0.01 0.02 0.02 0.04 0.05 0.04 0.03 0.02 0.01 0.01
0.02 0.02 0.02 0.02 0.01 0.01 0.01 0.00 0.00 0.00 0.00 0.00 0.00 0.00 0.00 0.00 0.00 0.00 0.00 0.00 0.00 0.00 0.00 0.00 0.01 0.01 0.02 0.02 0.02 0.01 0.01 0.01
0.04 0.04 0.03 0.03 0.01 0.01 0.00 0.00 0.00 0.00 0.00 0.00 0.00 0.00 0.00 0.00 0.00 0.00 0.00 0.00 0.00 0.00 0.00 0.00 0.00 0.00 0.00 0.00 0.01 0.01 0.01 0.01
0.05 0.03 0.02 0.02 0.01 0.00 0.00 0.00 0.00 0.00 0.00 0.00 0.00 0.00 0.00 0.00 0.00 0.00 0.00 0.00 0.00 0.00 0.00 0.00 0.00 0.00 0.00 0.00 0.00 0.00 0.01 0.01
0.01 0.01 0.00 0.00 0.00 0.00 0.00 0.00 0.00 0.00 0.00 0.00 0.00 0.00 0.00 0.00 0.00 0.00 0.00 0.00 0.00 0.00 0.00 0.00 0.00 0.00 0.00 0.00 0.00 0.00 0.01 0.01
0.00 0.00 0.00 0.00 0.00 0.00 0.00 0.00 0.00 0.00 0.00 0.00 0.00 0.00 0.00 0.00 0.00 0.00 0.00 0.00 0.00 0.00 0.00 0.00 0.00 0.00 0.00 0.00 0.00 0.00 0.01 0.01
0.00 0.00 0.00 0.00 0.00 0.00 0.00 0.00 0.00 0.00 0.00 0.00 0.00 0.00 0.00 0.00 0.00 0.00 0.00 0.00 0.00 0.00 0.00 0.00 0.00 0.00 0.01 0.00 0.00 0.00 0.01 0.01
0.00 0.00 0.00 0.00 0.00 0.00 0.00 0.00 0.00 0.00 0.00 0.00 0.00 0.00 0.00 0.00 0.00 0.00 0.00 0.00 0.00 0.00 0.00 0.00 0.01 0.01 0.01 0.00 0.01 0.00 0.01 0.01
0.00 0.00 0.00 0.00 0.00 0.00 0.00 0.00 0.00 0.00 0.00 0.00 0.00 0.00 0.00 0.00 0.00 0.00 0.00 0.00 0.00 0.00 0.01 0.01 0.01 0.01 0.00 0.00 0.01 0.01 0.00 0.01
0.00 0.00 0.00 0.00 0.00 0.00 0.00 0.00 0.00 0.00 0.00 0.00 0.00 0.00 0.00 0.00 0.00 0.00 0.00 0.00 0.00 0.00 0.00 0.01 0.01 0.00 0.00 0.00 0.01 0.01 0.01 0.01
0.00 0.00 0.00 0.00 0.00 0.00 0.00 0.00 0.00 0.00 0.00 0.00 0.00 0.00 0.00 0.00 0.00 0.00 0.00 0.00 0.00 0.00 0.00 0.01 0.01 0.00 0.00 0.01 0.01 0.01 0.00 0.00
MSLP
1001.64 1001.86 1001.82 1001.78 1002.29 1003.06 1003.77 1004.43 1005.23 1006.01 1006.97 1007.80 1008.63 1008.88 1008.82 1009.14 1009.66 1009.92 1010.42 1010.87 1011.39 1012.10 1012.69 1013.30 1013.70 1014.50 1014.91 1015.38 1015.94 1016.50 1016.80 1017.27
1000.96 1000.90 1000.75 1000.94 1001.20 1001.80 1002.64 1003.58 1004.27 1005.50 1006.27 1006.78 1007.72 1007.91 1008.18 1008.40 1008.81 1009.10 1009.57 1010.16 1010.86 1011.51 1012.22 1012.86 1013.36 1013.91 1014.31 1014.88 1015.49 1016.05 1016.54 1016.90
1000.24 999.98 1000.15 1000.24 1000.32 1000.67 1001.55 1002.32 1003.34 1004.12 1004.89 1005.54 1006.39 1006.85 1007.58 1008.10 1008.30 1008.47 1008.98 1009.48 1009.96 1010.64 1011.34 1011.98 1012.67 1013.30 1013.82 1014.26 1014.71 1015.42 1016.00 1016.33
999.84 999.58 999.76 999.93 1000.29 1000.17 1000.69 1001.61 1002.34 1002.98 1003.90 1005.21 1006.30 1006.89 1007.44 1007.92 1008.25 1008.24 1008.20 1008.84 1009.36 1009.82 1010.32 1011.11 1011.92 1012.50 1012.96 1013.33 1013.75 1014.44 1015.13 1015.72
998.84 999.13 1000.15 1000.56 1000.45 1000.58 1001.17 1001.89 1002.56 1003.10 1003.66 1004.59 1005.48 1005.99 1006.63 1006.81 1007.23 1008.01 1008.17 1008.23 1008.66 1009.02 1009.91 1010.12 1010.99 1011.59 1012.15 1012.57 1013.06 1013.33 1014.02 1014.81
999.34 1000.04 1000.84 1001.76 1001.71 1001.68 1002.15 1002.66 1003.23 1003.71 1004.01 1004.57 1005.34 1005.80 1006.16 1006.69 1007.01 1007.69 1008.20 1008.20 1008.20 1009.12 1009.30 1009.70 1010.36 1010.84 1011.18 1011.74 1012.35 1012.86 1013.07 1013.53
1000.44 1001.04 1001.68 1002.62 1002.59 1002.95 1003.53 1003.71 1004.42 1004.71 1004.83 1005.56 1005.85 1006.31 1006.80 1006.81 1006.69 1006.26 1007.16 1007.39 1008.94 1009.00 1008.93 1009.43 1010.00 1009.95 1010.27 1010.71 1011.20 1011.67 1012.28 1012.78
1002.16 1002.62 1003.22 1003.60 1004.44 1004.73 1005.10 1005.41 1005.87 1006.27 1006.29 1006.81 1007.02 1007.41 1007.66 1007.46 1007.10 1006.31 1007.05 1008.63 1009.20 1008.56 1008.62 1008.96 1009.15 1009.31 1009.68 1010.09 1010.42 1010.72 1011.29 1011.82
1004.22 1004.66 1005.11 1005.83 1006.74 1006.76 1006.82 1007.05 1007.26 1007.58 1008.12 1008.21 1007.89 1007.97 1008.16 1008.19 1008.20 1008.35 1007.46 1008.31 1008.60 1007.99 1008.31 1008.72 1008.45 1008.65 1009.13 1009.55 1009.80 1010.00 1010.50 1010.98
1006.32 1006.69 1007.28 1007.73 1008.16 1007.97 1008.16 1008.60 1008.73 1008.70 1008.81 1008.95 1008.37 1008.72 1008.53 1008.72 1008.48 1008.46 1008.80 1008.96 1008.37 1007.85 1007.81 1007.74 1007.59 1008.05 1008.33 1008.71 1009.00 1009.34 1009.76 1010.33
1007.93 1008.44 1008.84 1009.53 1009.67 1009.57 1009.65 1009.79 1009.59 1009.70 1009.75 1009.51 1009.55 1009.63 1009.41 1009.11 1008.70 1008.87 1008.89 1008.65 1008.25 1007.79 1007.35 1007.17 1007.17 1007.18 1007.43 1007.85 1008.19 1008.43 1008.85 1009.33
1009.51 1009.82 1010.26 1010.51 1010.12 1009.99 1010.09 1010.08 1010.22 1010.28 1009.59 1010.00 1010.21 1009.90 1009.52 1008.95 1008.81 1008.96 1008.88 1008.59 1008.19 1007.71 1007.24 1006.72 1006.41 1006.28 1006.51 1006.89 1007.22 1007.69 1008.03 1008.51
1010.30 1010.87 1011.26 1011.19 1010.01 1010.31 1011.66 1010.89 1010.20 1010.40 1010.05 1010.29 1009.91 1010.06 1010.11 1010.02 1009.94 1009.62 1009.13 1008.64 1008.10 1007.56 1006.84 1006.42 1005.73 1005.50 1005.48 1005.88 1006.29 1006.87 1007.27 1007.59
1012.14 1012.37 1011.39 1010.39 1009.83 1010.44 1010.56 1010.66 1011.13 1010.57 1011.11 1011.51 1011.53 1011.18 1010.93 1010.60 1010.07 1009.54 1009.02 1008.48 1007.70 1006.72 1006.10 1005.20 1004.64 1004.50 1004.48 1004.78 1005.37 1006.01 1006.36 1006.71
1013.05 1012.75 1012.78 1012.94 1012.52 1012.66 1012.34 1012.42 1012.69 1012.48 1012.60 1012.14 1011.47 1010.86 1010.66 1010.46 1009.97 1009.25 1008.94 1008.14 1007.05 1005.97 1005.08 1003.95 1003.53 1003.45 1003.58 1003.89 1004.39 1005.17 1005.65 1005.91
1015.04 1014.85 1014.89 1014.88 1014.54 1014.78 1014.71 1014.71 1014.34 1013.35 1012.78 1011.85 1011.60 1011.44 1011.40 1010.67 1009.71 1009.02 1008.31 1007.27 1006.12 1005.24 1004.31 1003.15 1002.42 1002.51 1002.71 1003.10 1003.61 1004.39 1004.89 1005.23
1016.37 1016.21 1016.09 1016.58 1016.32 1016.06 1015.98 1015.32 1013.74 1013.31 1013.65 1012.85 1012.77 1012.06 1011.12 1010.25 1009.50 1008.68 1007.71 1006.62 1005.50 1004.78 1003.71 1002.39 1001.65 1001.58 1001.98 1002.41 1002.97 1003.58 1004.12 1004.46
1017.74 1017.27 1017.74 1018.37 1017.47 1017.35 1016.07 1014.72 1014.12 1013.61 1012.78 1013.05 1013.15 1012.03 1011.36 1010.53 1009.58 1008.59 1007.45 1006.32 1005.45 1004.29 1003.12 1001.74 1001.17 1001.08 1001.47 1002.01 1002.48 1002.81 1003.40 1003.85
1018.76 1018.95 1019.36 1018.88 1018.54 1017.29 1016.40 1015.13 1014.81 1014.08 1014.34 1013.88 1013.24 1012.63 1011.57 1010.58 1009.56 1008.50 1007.43 1006.39 1005.17 1004.14 1002.63 1001.46 1000.74 1000.54 1000.84 1001.36 1001.93 1002.11 1002.65 1003.10
Thickness
5689 5684 5695 5706 5708 5707 5710 5713 5709 5705 5699 5694 5690 5691 5695 5694 5691 5689 5687 5684 5681 5675 5671 5668 5666 5661 5658 5654 5650 5645 5642 5638
5678 5683 5688 5696 5703 5705 5705 5708 5709 5700 5696 5695 5689 5691 5692 5693 5692 5689 5686 5683 5677 5672 5668 5665 5662 5659 5658 5653 5649 5644 5639 5636
5664 5677 5677 5683 5697 5704 5704 5708 5705 5703 5700 5698 5693 5692 5689 5688 5688 5688 5684 5681 5677 5672 5669 5664 5661 5657 5655 5653 5649 5642 5638 5635
5646 5660 5669 5674 5679 5693 5700 5700 5703 5702 5699 5691 5686 5684 5682 5681 5681 5683 5686 5680 5673 5670 5669 5665 5659 5657 5655 5654 5650 5644 5638 5634
5644 5650 5644 5653 5665 5674 5680 5682 5686 5690 5692 5688 5685 5685 5681 5683 5680 5675 5672 5672 5671 5668 5665 5666 5658 5656 5654 5652 5649 5646 5641 5634
5614 5620 5626 5627 5642 5654 5658 5662 5666 5673 5679 5680 5679 5678 5679 5673 5670 5666 5662 5656 5660 5658 5660 5661 5656 5655 5654 5651 5647 5642 5641 5637
5588 5600 5609 5606 5626 5635 5639 5644 5644 5651 5660 5661 5665 5665 5661 5663 5664 5667 5663 5651 5641 5650 5654 5653 5650 5654 5653 5650 5648 5644 5640 5636
5564 5575 5582 5597 5601 5611 5618 5621 5625 5627 5636 5639 5641 5642 5643 5648 5651 5659 5656 5643 5639 5645 5648 5648 5647 5650 5650 5648 5646 5644 5641 5636
5542 5553 5563 5572 5575 5586 5595 5601 5605 5607 5608 5613 5621 5625 5626 5628 5630 5630 5639 5634 5633 5642 5641 5639 5646 5647 5645 5644 5643 5642 5639 5635
5527 5535 5542 5551 5557 5568 5576 5580 5584 5589 5593 5596 5604 5605 5610 5612 5617 5620 5618 5619 5628 5635 5638 5640 5643 5641 5641 5641 5641 5639 5636 5632
5517 5522 5528 5532 5539 5548 5554 5559 5567 5571 5575 5581 5585 5588 5593 5600 5607 5607 5608 5611 5617 5624 5631 5634 5636 5640 5639 5638 5638 5637 5634 5631
5504 5510 5513 5518 5529 5536 5542 5549 5553 5557 5568 5570 5572 5579 5585 5592 5596 5596 5597 5601 5606 5613 5620 5626 5632 5635 5637 5635 5635 5633 5631 5629
5499 5498 5501 5509 5525 5529 5524 5535 5547 5549 5557 5559 5565 5567 5569 5572 5574 5578 5583 5589 5594 5601 5611 5617 5624 5629 5634 5633 5631 5629 5627 5627
5482 5483 5491 5512 5523 5523 5528 5532 5532 5542 5539 5539 5541 5547 5552 5557 5562 5568 5573 5578 5585 5594 5601 5613 5620 5624 5629 5630 5627 5624 5625 5624
5470 5478 5483 5487 5494 5496 5503 5508 5510 5516 5517 5523 5532 5539 5543 5545 5550 5558 5561 5567 5577 5587 5595 5607 5614 5619 5622 5624 5623 5620 5620 5620
5450 5455 5458 5463 5471 5474 5478 5482 5490 5501 5507 5518 5522 5524 5524 5532 5542 5549 5554 5563 5573 5581 5590 5602 5612 5614 5616 5619 5618 5614 5614 5615
5438 5442 5444 5445 5451 5456 5460 5470 5486 5492 5491 5501 5503 5510 5517 5525 5531 5538 5547 5556 5565 5574 5584 5600 5608 5610 5609 5609 5610 5610 5609 5610
5423 5429 5429 5424 5434 5439 5456 5471 5479 5485 5494 5493 5493 5501 5505 5511 5519 5526 5537 5547 5553 5565 5577 5596 5603 5604 5600 5600 5600 5605 5604 5603
5413 5410 5409 5418 5423 5439 5449 5463 5467 5475 5473 5478 5483 5487 5495 5502 5509 5517 5525 5534 5544 5554 5570 5586 5597 5599 5595 5594 5593 5599 5598 5598